Regional Weather Roundup
Issued by NWS

Home | Current Version | Previous Version | Text Only | Print | Product List | Glossary On
Versions: 1 2 3 4 5 6 7 8 9 10 11 12 13 14 15 16 17 18 19 20 21 22 23 24 25 26 27 28 29 30 31 32 33 34 35 36 37 38 39 40 41 42 43 44 45 46 47 48 49 50
924
ASUS43 KFSD 232310
RWRSD

WEATHER ROUNDUP FOR SOUTH DAKOTA
NATIONAL WEATHER SERVICE SIOUX FALLS SD
500 PM CST MON JAN 23 2017

NOTE: "FAIR" INDICATES FEW OR NO CLOUDS BELOW 12,000 FEET WITH NO
SIGNIFICANT WEATHER AND/OR OBSTRUCTIONS TO VISIBILITY.


SDZ001>005-009-010-012>017-240000-
NORTHWEST AND NORTH CENTRAL SOUTH DAKOTA

CITY           SKY/WX    TMP DP  RH WIND       PRES   REMARKS
BUFFALO          N/A     25  20  81 N7        29.63R WCI  17
FAITH            N/A     27  24  89 NE10      29.70R WCI  17
MOBRIDGE       CLOUDY    29  24  82 NE8       29.74R WCI  21
$$

SDZ012>016-024>037-041>051-057-063-072>074-240000-
SOUTHWEST AND SOUTH CENTRAL SOUTH DAKOTA

CITY           SKY/WX    TMP DP  RH WIND       PRES   REMARKS
RAPID CTY ARPT CLOUDY    23  20  88 N20       29.65R WCI   8
PIERRE         CLOUDY    30  26  85 E14       29.70R WCI  19
CUSTER         CLOUDY    30  21  69 NE14      29.54R WCI  19
ELLSWORTH AFB  FOG       23  23  99 N16       29.64  VSB 1/2 WCI  10
PHILIP         CLOUDY    28  27  96 NE12      29.68R WCI  18
PINE RIDGE     PTCLDY    34  28  79 N16       29.58R WCI  24
SPEARFISH      FOG       21  19  93 CALM      29.64R VSB<1/4
WINNER         CLOUDY    35  28  75 SE15      29.67R WCI  25
$$

SDZ004>011-016>023-039-040-240000-
NORTHEAST SOUTH DAKOTA

CITY           SKY/WX    TMP DP  RH WIND       PRES   REMARKS
ABERDEEN       CLOUDY    30  25  81 SE3       29.81R
WATERTOWN      CLOUDY    29  25  85 E6        29.78S WCI  23
BROOKINGS      CLOUDY    30  26  85 SE5       29.80R WCI  25
SISSETON         N/A     32  27  81 CALM      29.81R
$$

SDZ017-020-022-023-036>040-048>070-240000-
SOUTHEAST SOUTH DAKOTA

CITY           SKY/WX    TMP DP  RH WIND       PRES   REMARKS
SIOUX FALLS    CLOUDY    31  28  89 E7        29.81S WCI  24
HURON          CLOUDY    31  27  85 E9        29.78S WCI  23
CHAMBERLAIN    CLOUDY    33  30  89 E14       29.71R WCI  23
MITCHELL       CLOUDY    33  28  81 E13       29.78F WCI  24
YANKTON        MOCLDY    32  27  80 E10       29.78S WCI  24
$$

ABBREVIATIONS USED IN REMARKS
   TC - TEMPERATURE IN CELSIUS
  WCI - WIND CHILL INDEX
   HX - HEAT INDEX
  VSB - VISIBILITY





USA.gov is the U.S. government's official web portal to all federal, state and local government web resources and services.